Back to catalog

ATLAS 5 CENTAUR DEB

LostHEO
NORAD 46603·DEBRIS·🇺🇸 United States

Launched Oct 17, 2018 from Cape Canaveral Space Force Station

Loading…

Next Passes (next 24 hours)

TLE

StaleSource: Space-Track

Epoch: Aug 10, 2023, 01:08 UTC

1 46603U 18079CB  23222.04730284 -.00000051  00000-0  00000+0 0  9999
2 46603  11.2931 126.8393 4671449 117.6650 296.8190  1.75099922 20855

Track ATLAS 5 CENTAUR DEB in real time with AllMySat

Download on the App Store